EW6430 Weather Reports


time (UTC)temp
C
wind
direction
speed
KPH
gust
KPH
rain 1hr
cm
rain 24hr
cm
rain mn
cm
humidity
%
barometer
mb
20260510110043 17 161 6.4 17.7 0.00 0.00 0.00 54 1013.5
20260510110005 18 165 6.4 17.7 0.00 0.00 0.00 54 1013.0
20260510105446 18 98 4.8 14.5 0.00 0.00 0.00 56 1013.1
20260510104928 17 24 6.4 17.7 0.00 0.00 0.00 56 1013.1
20260510104557 17 94 4.8 17.7 0.00 0.00 0.00 56 1013.6
20260510104412 17 91 6.4 17.7 0.00 0.00 0.00 57 1013.2
20260510103342 17 83 6.4 16.1 0.00 0.00 0.00 58 1013.4
20260510103114 17 84 3.2 16.1 0.00 0.00 0.00 58 1013.9
20260510102831 17 130 6.4 16.1 0.00 0.00 0.00 58 1013.6
20260510102315 17 42 4.8 11.3 0.00 0.00 0.00 57 1013.7
20260510101802 17 13 4.8 14.5 0.00 0.00 0.00 58 1014.0
20260510101521 17 192 4.8 14.5 0.00 0.00 0.00 59 1014.4
20260510101238 17 105 6.4 12.9 0.00 0.00 0.00 59 1014.0
20260510100202 17 88 8.0 19.3 0.00 0.00 0.00 56 1014.1
20260510100033 17 145 9.7 19.3 0.00 0.00 0.00 57 1014.6
20260510095649 17 106 3.2 11.3 0.00 0.00 0.00 57 1014.2
20260510095137 17 42 3.2 14.5 0.00 0.00 0.00 59 1014.2
20260510093556 16 132 4.8 14.5 0.00 0.00 0.00 59 1014.4
20260510093041 16 138 6.4 16.1 0.00 0.00 0.00 57 1014.4
20260510093017 16 138 4.8 16.1 0.00 0.00 0.00 57 1014.9
20260510092530 16 67 8.0 16.1 0.00 0.00 0.00 57 1014.6
20260510092013 16 205 8.0 17.7 0.00 0.00 0.00 57 1014.6
20260510091537 16 141 6.4 17.7 0.00 0.00 0.00 56 1015.1
20260510091459 16 158 9.7 16.1 0.00 0.00 0.00 56 1014.6
20260510090949 16 102 8.0 17.7 0.00 0.00 0.00 56 1014.6
20260510090437 16 113 6.4 19.3 0.00 0.00 0.00 57 1014.7
20260510090104 15 125 6.4 19.3 0.00 0.00 0.00 56 1015.2
20260510085922 16 82 8.0 19.3 0.00 0.00 0.00 56 1014.8
20260510085407 16 75 9.7 19.3 0.00 0.00 0.00 58 1014.8
20260510084851 15 148 9.7 20.9 0.00 0.00 0.00 57 1014.9
20260510084518 15 110 11.3 22.5 0.00 0.00 0.00 56 1015.4
20260510084337 15 121 9.7 22.5 0.00 0.00 0.00 57 1014.9
20260510083830 15 76 11.3 22.5 0.00 0.00 0.00 57 1014.9
20260510083316 15 127 11.3 19.3 0.00 0.00 0.00 57 1014.9
20260510083049 15 76 11.3 19.3 0.00 0.00 0.00 57 1015.5
20260510082805 15 103 9.7 20.9 0.00 0.00 0.00 58 1015.0
20260510082252 15 128 8.0 20.9 0.00 0.00 0.00 59 1015.0
20260510081747 15 97 9.7 22.5 0.00 0.00 0.00 59 1015.2
20260510081523 15 63 6.4 20.9 0.00 0.00 0.00 60 1015.7
20260510081242 15 71 9.7 22.5 0.00 0.00 0.00 59 1015.3
20260510080228 15 36 11.3 22.5 0.00 0.00 0.00 60 1015.5
20260510080100 14 52 8.0 20.9 0.00 0.00 0.00 61 1016.0
20260510075211 14 99 11.3 22.5 0.00 0.00 0.00 61 1015.6
20260510074709 14 64 9.7 22.5 0.00 0.00 0.00 62 1015.6
20260510074545 13 146 8.0 22.5 0.00 0.00 0.00 62 1016.1
20260510074200 14 90 9.7 22.5 0.00 0.00 0.00 62 1015.7
20260510073655 13 46 11.3 20.9 0.00 0.00 0.00 62 1015.8
20260510073149 13 111 12.9 24.1 0.00 0.00 0.00 65 1015.7
20260510073030 13 111 11.3 24.1 0.00 0.00 0.00 65 1016.3
20260510072135 13 136 11.3 25.7 0.00 0.00 0.00 66 1015.6
20260510071627 13 121 9.7 19.3 0.00 0.00 0.00 68 1015.8
20260510071501 13 142 9.7 19.3 0.00 0.00 0.00 68 1016.3
20260510071119 13 125 9.7 17.7 0.00 0.00 0.00 69 1015.9
20260510070109 12 104 8.0 17.7 0.00 0.00 0.00 70 1016.0
20260510070045 12 99 9.7 17.7 0.00 0.00 0.00 70 1016.5
20260510065555 12 96 8.0 17.7 0.00 0.00 0.00 72 1016.0
20260510065051 12 121 9.7 17.7 0.00 0.00 0.00 73 1016.0
20260510064550 12 136 11.3 20.9 0.00 0.00 0.00 76 1016.0
20260510064532 11 129 6.4 20.9 0.00 0.00 0.00 76 1016.5
20260510064045 11 101 12.9 20.9 0.00 0.00 0.00 75 1016.0
20260510063539 11 71 11.3 20.9 0.00 0.00 0.00 76 1015.9
20260510063157 11 128 12.9 20.9 0.00 0.00 0.00 77 1016.5
20260510062508 11 126 11.3 19.3 0.00 0.00 0.00 80 1016.0
20260510062010 11 123 9.7 19.3 0.00 0.00 0.00 83 1015.9
20260510061538 11 127 6.4 19.3 0.00 0.00 0.00 84 1016.4
20260510061500 11 128 6.4 19.3 0.00 0.00 0.00 85 1015.9
20260510060946 11 122 4.8 11.3 0.00 0.00 0.00 87 1015.8
20260510060015 10 101 4.8 17.7 0.00 0.00 0.00 91 1016.3
20260510055924 10 128 6.4 17.7 0.00 0.00 0.00 91 1015.7
20260510054638 9 71 4.8 14.5 0.00 0.00 0.00 95 1016.4
20260510054355 9 75 6.4 14.5 0.00 0.00 0.00 95 1015.9
20260510053845 9 97 6.4 17.7 0.00 0.00 0.00 96 1016.0
20260510053332 8 84 6.4 17.7 0.00 0.00 0.00 96 1015.9
20260510053103 8 85 8.0 17.7 0.00 0.00 0.00 96 1016.6
20260510052819 8 94 4.8 14.5 0.00 0.00 0.00 96 1016.0
20260510052307 8 101 4.8 11.3 0.00 0.00 0.00 97 1016.1
20260510051753 8 22 3.2 9.7 0.00 0.00 0.00 97 1016.2
20260510051529 8 53 3.2 9.7 0.00 0.00 0.00 97 1016.7
20260510051239 8 101 3.2 9.7 0.00 0.00 0.00 97 1016.2
20260510050725 8 39 1.6 4.8 0.00 0.00 0.00 97 1016.3
20260510050215 7 38 0.0 1.6 0.00 0.00 0.00 97 1016.3
20260510050048 7 18 0.0 1.6 0.00 0.00 0.00 97 1016.9
20260510045704 7 18 0.0 1.6 0.00 0.00 0.00 97 1016.3
20260510045151 7 17 0.0 1.6 0.00 0.00 0.00 97 1016.4
20260510044639 6 17 0.0 1.6 0.00 0.00 0.00 97 1016.5
20260510044509 6 17 0.0 1.6 0.00 0.00 0.00 97 1017.1
20260510043614 5 17 0.0 0.0 0.00 0.00 0.00 97 1016.6
20260510043105 5 17 0.0 0.0 0.00 0.00 0.00 96 1016.5
20260510043038 5 17 0.0 0.0 0.00 0.00 0.00 96 1017.1
20260510042549 5 17 0.0 0.0 0.00 0.00 0.00 96 1016.5
20260510042040 4 17 0.0 0.0 0.00 0.00 0.00 96 1016.6
20260510041614 3 17 0.0 0.0 0.00 0.00 0.00 96 1017.2
20260510041536 4 17 0.0 0.0 0.00 0.00 0.00 96 1016.7
20260510041023 3 17 0.0 0.0 0.00 0.00 0.00 96 1016.7
20260510040513 3 17 0.0 0.0 0.00 0.00 0.00 96 1016.7
20260510040038 3 17 0.0 0.0 0.00 0.00 0.00 96 1017.3
20260510040001 3 17 0.0 0.0 0.00 0.00 0.00 96 1016.7
20260510035449 3 17 0.0 0.0 0.00 0.00 0.00 96 1016.8
20260510034929 2 17 0.0 0.0 0.00 0.00 0.00 96 1016.8
20260510034556 2 17 0.0 0.0 0.00 0.00 0.00 96 1017.5
20260510034418 2 17 0.0 0.0 0.00 0.00 0.00 96 1016.9
20260510033351 2 17 0.0 0.0 0.00 0.00 0.00 96 1016.9
20260510033018 2 17 0.0 0.0 0.00 0.00 0.00 96 1017.4
20260510032836 2 17 0.0 0.0 0.00 0.00 0.00 96 1016.9
20260510032323 2 17 0.0 0.0 0.00 0.00 0.00 96 1016.9
20260510031806 2 17 0.0 0.0 0.00 0.00 0.00 95 1016.9
20260510031541 2 17 0.0 0.0 0.00 0.00 0.00 95 1017.5
20260510031252 2 17 0.0 0.0 0.00 0.00 0.00 95 1016.9
20260510030736 2 17 0.0 0.0 0.00 0.00 0.00 95 1016.9
20260510030221 2 17 0.0 0.0 0.00 0.00 0.00 95 1017.0
20260510030052 2 17 0.0 0.0 0.00 0.00 0.00 95 1017.5
20260510025706 2 17 0.0 0.0 0.00 0.00 0.00 95 1016.9
20260510025152 2 17 0.0 0.0 0.00 0.00 0.00 95 1016.9
20260510024636 2 17 0.0 0.0 0.00 0.00 0.00 95 1016.9
20260510024611 2 17 0.0 0.0 0.00 0.00 0.00 95 1017.4
20260510024122 2 17 0.0 0.0 0.00 0.00 0.00 95 1016.9
20260510023608 2 17 0.0 0.0 0.00 0.00 0.00 95 1016.8
20260510023054 2 17 0.0 0.0 0.00 0.00 0.00 95 1016.9
20260510023032 2 17 0.0 0.0 0.00 0.00 0.00 95 1017.4
20260510022543 2 17 0.0 0.0 0.00 0.00 0.00 95 1016.9
20260510022025 2 17 0.0 0.0 0.00 0.00 0.00 95 1016.9
20260510021546 2 17 0.0 0.0 0.00 0.00 0.00 95 1017.4
20260510021508 2 17 0.0 0.0 0.00 0.00 0.00 95 1016.9
20260510020953 2 17 0.0 0.0 0.00 0.00 0.00 95 1016.9
20260510020438 2 17 0.0 0.0 0.00 0.00 0.00 95 1016.9
20260510020104 2 17 0.0 0.0 0.00 0.00 0.00 95 1017.5
20260510015923 3 17 0.0 0.0 0.00 0.00 0.00 95 1017.1
20260510015408 3 17 0.0 0.0 0.00 0.00 0.00 95 1017.0
20260510014852 3 17 0.0 0.0 0.00 0.00 0.00 95 1017.1
20260510014520 2 17 0.0 0.0 0.00 0.00 0.00 95 1017.6
20260510014341 3 17 0.0 0.0 0.00 0.00 0.00 95 1017.1
20260510013827 3 17 0.0 0.0 0.00 0.00 0.00 95 1017.1
20260510013312 3 17 0.0 0.0 0.00 0.00 0.00 95 1017.1
20260510013038 3 17 0.0 0.0 0.00 0.00 0.00 95 1017.6
20260510012757 3 17 0.0 0.0 0.00 0.00 0.00 95 1017.1
20260510012240 3 17 0.0 0.0 0.00 0.00 0.00 95 1017.1
20260510011727 3 17 0.0 0.0 0.00 0.00 0.00 95 1017.1
20260510011558 3 17 0.0 0.0 0.00 0.00 0.00 95 1017.6
20260510011210 3 17 0.0 0.0 0.00 0.00 0.00 95 1017.1
20260510010656 3 17 0.0 0.0 0.00 0.00 0.00 95 1017.1
20260510010133 3 17 0.0 0.0 0.00 0.00 0.00 95 1017.2
20260510010007 3 17 0.0 0.0 0.00 0.00 0.00 95 1017.7
20260510005623 3 17 0.0 0.0 0.00 0.00 0.00 95 1017.2
20260510005116 3 17 0.0 0.0 0.00 0.00 0.00 95 1017.3
20260510004605 3 17 0.0 0.0 0.00 0.00 0.00 94 1017.2
20260510004541 3 17 0.0 0.0 0.00 0.00 0.00 94 1017.7
20260510004049 3 17 0.0 0.0 0.00 0.00 0.00 95 1017.2
20260510003535 4 17 0.0 0.0 0.00 0.00 0.00 95 1017.3
20260510003106 3 17 0.0 0.0 0.00 0.00 0.00 94 1017.8
20260510003027 4 17 0.0 0.0 0.00 0.00 0.00 94 1017.3
20260510001634 4 17 0.0 0.0 0.00 0.00 0.00 94 1017.9
20260510000949 4 17 0.0 0.0 0.00 0.00 0.00 94 1017.5
20260510000441 5 17 0.0 0.0 0.00 0.00 0.00 94 1017.6
20260510000119 4 17 0.0 0.0 0.00 0.00 0.00 94 1018.1
20260509235937 5 17 0.0 0.0 0.00 0.00 0.00 94 1017.6
20260509235434 5 18 0.0 0.0 0.00 0.00 0.00 94 1017.6
20260509234921 5 17 0.0 0.0 0.00 0.00 0.00 94 1017.7
20260509234656 5 17 0.0 0.0 0.00 0.00 0.00 94 1018.2
20260509233903 5 17 0.0 0.0 0.00 0.00 0.00 94 1017.6
20260509233402 5 17 0.0 0.0 0.00 0.00 0.00 94 1017.7
20260509233035 5 17 0.0 0.0 0.00 0.00 0.00 94 1018.1
20260509232854 5 17 0.0 0.0 0.00 0.00 0.00 93 1017.7
20260509232344 5 17 0.0 0.0 0.00 0.00 0.00 94 1017.8
20260509231842 5 17 0.0 0.0 0.00 0.00 0.00 93 1017.8
20260509231523 5 17 0.0 0.0 0.00 0.00 0.00 93 1018.4
20260509231340 5 17 0.0 0.0 0.00 0.00 0.00 93 1017.9
20260509230836 5 17 0.0 0.0 0.00 0.00 0.00 93 1017.9
20260509230335 5 17 0.0 0.0 0.00 0.00 0.00 93 1018.0
20260509230013 5 17 0.0 0.0 0.00 0.00 0.00 93 1018.5
20260509225832 5 17 0.0 0.0 0.00 0.00 0.00 93 1017.9
20260509225328 6 18 0.0 0.0 0.00 0.00 0.00 93 1018.0
20260509224829 6 17 0.0 0.0 0.00 0.00 0.00 93 1018.0
20260509224501 5 17 0.0 0.0 0.00 0.00 0.00 93 1018.5
20260509224323 6 17 0.0 0.0 0.00 0.00 0.00 93 1018.1
20260509223816 6 17 0.0 0.0 0.00 0.00 0.00 93 1018.1
20260509223256 6 17 0.0 0.0 0.00 0.00 0.00 92 1018.1
20260509223030 6 17 0.0 0.0 0.00 0.00 0.00 92 1018.6
20260509222246 6 17 0.0 0.0 0.00 0.00 0.00 92 1018.1
20260509221725 6 17 0.0 0.0 0.00 0.00 0.00 92 1018.2
20260509221606 6 17 0.0 0.0 0.00 0.00 0.00 92 1018.7
20260509221214 6 17 0.0 0.0 0.00 0.00 0.00 92 1018.2
20260509220658 6 17 0.0 0.0 0.00 0.00 0.00 92 1018.2
20260509220151 7 17 0.0 0.0 0.00 0.00 0.00 92 1018.2
20260509220031 6 17 0.0 0.0 0.00 0.00 0.00 92 1018.7
20260509215651 7 17 0.0 0.0 0.00 0.00 0.00 92 1018.3
20260509215149 7 17 0.0 0.0 0.00 0.00 0.00 91 1018.3
20260509214641 7 18 0.0 0.0 0.00 0.00 0.00 91 1018.3
20260509214516 7 17 0.0 0.0 0.00 0.00 0.00 91 1018.7
20260509214137 7 17 0.0 0.0 0.00 0.00 0.00 91 1018.3
20260509213628 7 17 0.0 0.0 0.00 0.00 0.00 91 1018.3
20260509213112 7 17 0.0 0.0 0.00 0.00 0.00 90 1018.3
20260509213046 7 17 0.0 0.0 0.00 0.00 0.00 90 1018.8
20260509212600 8 17 0.0 0.0 0.00 0.00 0.00 90 1018.3
20260509212050 8 17 0.0 0.0 0.00 0.00 0.00 90 1018.5
20260509211545 8 17 0.0 0.0 0.00 0.00 0.00 90 1018.5
20260509211527 8 17 0.0 0.0 0.00 0.00 0.00 90 1018.8
20260509210542 8 17 0.0 0.0 0.00 0.00 0.00 90 1018.5
20260509210038 8 17 0.0 0.0 0.00 0.00 0.00 90 1018.6
20260509210028 8 17 0.0 0.0 0.00 0.00 0.00 90 1018.9
20260509205534 8 17 0.0 0.0 0.00 0.00 0.00 91 1018.5
20260509205035 8 18 0.0 1.6 0.00 0.00 0.00 91 1018.6
20260509204600 8 17 0.0 1.6 0.00 0.00 0.00 91 1019.0
20260509204022 8 17 0.0 0.0 0.00 0.00 0.00 91 1018.6
20260509203049 8 17 0.0 0.0 0.00 0.00 0.00 91 1019.0
20260509203002 8 17 0.0 0.0 0.00 0.00 0.00 91 1018.7
20260509201944 8 17 0.0 0.0 0.00 0.00 0.00 90 1018.7
20260509201514 8 17 0.0 0.0 0.00 0.00 0.00 90 1019.0
20260509201438 8 17 0.0 0.0 0.00 0.00 0.00 90 1018.7
20260509200927 8 17 0.0 0.0 0.00 0.00 0.00 90 1018.8
20260509200415 8 17 0.0 0.0 0.00 0.00 0.00 90 1018.8
20260509200053 8 17 0.0 0.0 0.00 0.00 0.00 90 1019.1
20260509195902 8 17 0.0 0.0 0.00 0.00 0.00 89 1018.7
20260509194844 8 17 0.0 0.0 0.00 0.00 0.00 89 1018.7
20260509194511 8 17 0.0 0.0 0.00 0.00 0.00 89 1019.0
20260509194332 8 17 0.0 0.0 0.00 0.00 0.00 89 1018.6
20260509193830 8 17 0.0 0.0 0.00 0.00 0.00 88 1018.7
20260509193331 8 17 0.0 0.0 0.00 0.00 0.00 87 1018.7
20260509193042 8 17 0.0 0.0 0.00 0.00 0.00 87 1019.0
20260509192829 8 17 0.0 0.0 0.00 0.00 0.00 87 1018.7
20260509192331 8 17 0.0 0.0 0.00 0.00 0.00 86 1018.7
20260509191822 8 17 0.0 0.0 0.00 0.00 0.00 86 1018.7
20260509191558 8 17 0.0 0.0 0.00 0.00 0.00 85 1019.0
20260509191310 9 17 0.0 3.2 0.00 0.00 0.00 85 1018.7
20260509190758 9 17 0.0 3.2 0.00 0.00 0.00 84 1018.6
20260509190243 9 18 0.0 0.0 0.00 0.00 0.00 83 1018.6
20260509190014 9 18 0.0 0.0 0.00 0.00 0.00 82 1018.9
20260509184712 10 18 0.0 0.0 0.00 0.00 0.00 80 1018.5
20260509184544 10 18 0.0 0.0 0.00 0.00 0.00 79 1018.9
20260509184156 11 18 0.0 0.0 0.00 0.00 0.00 79 1018.5
20260509183121 11 18 0.0 0.0 0.00 0.00 0.00 76 1018.5
20260509183056 11 18 0.0 0.0 0.00 0.00 0.00 76 1018.9
20260509182055 12 18 0.0 0.0 0.00 0.00 0.00 74 1018.5
20260509181516 11 18 0.0 0.0 0.00 0.00 0.00 73 1018.8
20260509181026 12 18 0.0 3.2 0.00 0.00 0.00 73 1018.3
20260509180516 12 18 1.6 3.2 0.00 0.00 0.00 73 1018.3
20260509180142 12 18 0.0 6.4 0.00 0.00 0.00 73 1018.7
20260509180002 12 18 1.6 6.4 0.00 0.00 0.00 73 1018.3
20260509175445 12 42 0.0 4.8 0.00 0.00 0.00 73 1018.3
20260509174658 12 53 0.0 4.8 0.00 0.00 0.00 73 1018.7
20260509174417 12 54 1.6 4.8 0.00 0.00 0.00 73 1018.2
20260509173904 12 28 1.6 4.8 0.00 0.00 0.00 73 1018.3
20260509173350 12 29 1.6 4.8 0.00 0.00 0.00 73 1018.5
20260509173018 12 29 1.6 4.8 0.00 0.00 0.00 73 1018.8
20260509172838 12 39 1.6 4.8 0.00 0.00 0.00 73 1018.3
20260509172327 12 40 3.2 6.4 0.00 0.00 0.00 72 1018.3
20260509171810 12 41 1.6 6.4 0.00 0.00 0.00 72 1018.3
20260509171545 12 59 3.2 6.4 0.00 0.00 0.00 71 1018.7
20260509171256 12 52 1.6 4.8 0.00 0.00 0.00 71 1018.3
20260509170745 13 53 3.2 6.4 0.00 0.00 0.00 70 1018.2
20260509170229 13 54 1.6 6.4 0.00 0.00 0.00 70 1018.2
20260509170108 12 58 1.6 6.4 0.00 0.00 0.00 70 1018.6
20260509165716 13 343 1.6 4.8 0.00 0.00 0.00 70 1018.2
20260509165205 13 344 1.6 8.0 0.00 0.00 0.00 70 1018.2
20260509164649 13 348 3.2 11.3 0.00 0.00 0.00 70 1018.1
20260509164520 12 348 1.6 9.7 0.00 0.00 0.00 69 1018.6
20260509164133 13 5 4.8 8.0 0.00 0.00 0.00 69 1018.2
20260509163619 13 13 4.8 8.0 0.00 0.00 0.00 69 1018.1
20260509163103 13 62 3.2 8.0 0.00 0.00 0.00 69 1018.1
20260509163039 12 71 3.2 8.0 0.00 0.00 0.00 69 1018.6
20260509162551 13 32 3.2 8.0 0.00 0.00 0.00 70 1018.2
20260509161530 13 18 1.6 8.0 0.00 0.00 0.00 70 1018.2
20260509161507 12 26 3.2 8.0 0.00 0.00 0.00 70 1018.7
20260509161019 13 10 3.2 9.7 0.00 0.00 0.00 70 1018.3
20260509160501 13 40 3.2 9.7 0.00 0.00 0.00 70 1018.5
20260509160024 12 71 3.2 8.0 0.00 0.00 0.00 70 1018.8
20260509155947 13 40 3.2 8.0 0.00 0.00 0.00 70 1018.5
20260509155432 13 41 4.8 14.5 0.00 0.00 0.00 70 1018.6
20260509154921 13 60 4.8 14.5 0.00 0.00 0.00 69 1018.5
20260509154548 13 74 3.2 9.7 0.00 0.00 0.00 69 1018.8
20260509153853 13 5 4.8 11.3 0.00 0.00 0.00 67 1018.5
20260509153338 13 355 4.8 9.7 0.00 0.00 0.00 67 1018.3
20260509153004 13 344 3.2 9.7 0.00 0.00 0.00 66 1018.7
20260509152824 13 13 3.2 9.7 0.00 0.00 0.00 66 1018.3
20260509152309 13 66 3.2 9.7 0.00 0.00 0.00 66 1018.3
20260509151806 13 348 3.2 9.7 0.00 0.00 0.00 65 1018.2
20260509151538 13 63 3.2 9.7 0.00 0.00 0.00 66 1018.7
20260509151254 13 20 3.2 12.9 0.00 0.00 0.00 65 1018.2
20260509150225 13 30 4.8 11.3 0.00 0.00 0.00 64 1018.3
20260509150056 13 18 3.2 9.7 0.00 0.00 0.00 65 1018.8
20260509145709 13 68 3.2 11.3 0.00 0.00 0.00 64 1018.3
20260509145154 13 63 3.2 12.9 0.00 0.00 0.00 65 1018.3
20260509144644 13 318 6.4 12.9 0.00 0.00 0.00 64 1018.3
20260509144528 13 324 4.8 12.9 0.00 0.00 0.00 64 1018.7
20260509144133 13 341 6.4 14.5 0.00 0.00 0.00 64 1018.3
20260509143630 13 330 4.8 14.5 0.00 0.00 0.00 63 1018.3
20260509143158 13 308 1.6 12.9 0.00 0.00 0.00 64 1018.7
20260509143119 13 355 4.8 12.9 0.00 0.00 0.00 64 1018.3
20260509142611 13 314 4.8 12.9 0.00 0.00 0.00 63 1018.2
20260509142059 13 33 4.8 12.9 0.00 0.00 0.00 64 1018.2
20260509141634 13 304 3.2 12.9 0.00 0.00 0.00 64 1018.7
20260509141557 13 339 4.8 9.7 0.00 0.00 0.00 64 1018.2
20260509141046 13 259 3.2 12.9 0.00 0.00 0.00 64 1018.2
20260509140539 13 340 4.8 12.9 0.00 0.00 0.00 65 1018.3
20260509140112 13 308 3.2 9.7 0.00 0.00 0.00 65 1018.7
20260509140034 13 316 3.2 11.3 0.00 0.00 0.00 64 1018.3
20260509135526 13 332 3.2 14.5 0.00 0.00 0.00 65 1018.3
20260509135027 13 312 3.2 14.5 0.00 0.00 0.00 64 1018.3
20260509134626 13 335 1.6 8.0 0.00 0.00 0.00 65 1018.8
20260509134516 13 305 3.2 9.7 0.00 0.00 0.00 64 1018.5
20260509134011 13 13 3.2 11.3 0.00 0.00 0.00 64 1018.5
20260509133511 13 5 3.2 12.9 0.00 0.00 0.00 64 1018.6
20260509133042 13 302 1.6 12.9 0.00 0.00 0.00 64 1018.8
20260509133004 13 11 3.2 12.9 0.00 0.00 0.00 64 1018.6
20260509132458 13 24 3.2 12.9 0.00 0.00 0.00 63 1018.5
20260509131950 13 287 4.8 12.9 0.00 0.00 0.00 63 1018.5
20260509131525 13 10 1.6 12.9 0.00 0.00 0.00 64 1018.9
20260509131441 13 10 4.8 12.9 0.00 0.00 0.00 63 1018.5
20260509130934 13 41 3.2 9.7 0.00 0.00 0.00 63 1018.6
20260509130422 13 42 3.2 9.7 0.00 0.00 0.00 63 1018.6
20260509130154 13 340 3.2 9.7 0.00 0.00 0.00 64 1018.9
20260509125409 13 28 4.8 14.5 0.00 0.00 0.00 64 1018.5
20260509124909 13 304 4.8 14.5 0.00 0.00 0.00 62 1018.6
20260509124544 13 308 4.8 14.5 0.00 0.03 0.00 63 1018.9
20260509124404 13 29 6.4 14.5 0.00 0.00 0.00 63 1018.6
20260509123906 13 287 6.4 14.5 0.00 0.00 0.00 62 1018.6
20260509123354 13 321 4.8 12.9 0.00 0.00 0.00 62 1018.6
20260509123023 13 16 6.4 12.9 0.00 0.03 0.00 61 1019.0
20260509122838 13 351 4.8 12.9 0.00 0.00 0.00 61 1018.7
20260509122328 13 308 6.4 14.5 0.00 0.00 0.00 63 1018.7
20260509121817 13 340 4.8 14.5 0.00 0.00 0.00 63 1018.7
20260509121549 13 307 4.8 12.9 0.00 0.03 0.00 64 1019.0
20260509121305 13 303 3.2 12.9 0.00 0.03 0.00 64 1018.7
20260509120749 13 22 4.8 12.9 0.00 0.03 0.00 64 1018.7
20260509120237 13 59 4.8 9.7 0.00 0.03 0.00 63 1018.7
20260509120009 13 30 4.8 11.3 0.00 0.03 0.00 64 1019.1
20260509115729 13 33 4.8 11.3 0.00 0.03 0.00 63 1018.7
20260509115221 13 21 4.8 9.7 0.00 0.03 0.00 63 1018.7
20260509114705 13 317 4.8 11.3 0.00 0.03 0.00 63 1018.7
20260509114543 13 10 3.2 11.3 0.00 0.03 0.00 63 1019.0
20260509114147 13 338 3.2 11.3 0.00 0.03 0.00 62 1018.7
20260509113633 13 337 3.2 11.3 0.00 0.03 0.00 63 1018.8
20260509113120 13 5 3.2 11.3 0.00 0.03 0.00 65 1018.8
20260509113057 13 5 4.8 11.3 0.00 0.03 0.00 65 1019.1
20260509112605 13 342 4.8 12.9 0.00 0.03 0.00 68 1018.8
20260509112055 13 317 4.8 12.9 0.00 0.03 0.00 67 1018.8
20260509111511 13 328 4.8 9.7 0.00 0.03 0.00 68 1019.2
20260509111022 13 316 4.8 11.3 0.00 0.03 0.00 69 1018.9
20260509110509 13 303 4.8 12.9 0.00 0.03 0.00 67 1018.9